Date,TemperatureHighF,TemperatureAvgF,TemperatureLowF,DewpointHighF,DewpointAvgF,DewpointLowF,HumidityHigh,HumidityAvg,HumidityLow,PressureMaxIn,PressureMinIn,WindSpeedMaxMPH,WindSpeedAvgMPH,GustSpeedMaxMPH,PrecipitationSumIn
2013-3-1,67.0,62.6,58.4,58.1,53.2,48.4,89,71,61,29.98,29.90,8,1,12,0.01
2013-3-2,68.5,58.7,51.8,49.4,43.9,38.6,72,59,42,30.03,29.95,13,2,18,0.00
2013-3-3,66.0,55.8,49.9,47.9,44.0,41.4,85,66,44,30.15,29.96,8,1,14,0.01
2013-3-4,67.3,54.8,42.3,46.5,40.0,34.7,75,59,34,30.22,30.12,10,2,15,0.00
2013-3-5,72.3,62.2,48.0,58.7,53.0,43.4,94,73,56,30.18,30.08,9,2,13,0.00
2013-3-6,80.0,66.0,52.9,67.2,52.6,27.2,92,66,25,30.10,29.94,9,2,14,0.02
2013-3-7,72.4,59.4,46.9,54.6,45.8,36.1,87,62,38,30.18,30.07,7,2,11,0.00
2013-3-8,75.6,63.6,51.9,57.5,52.9,47.9,91,70,43,30.20,30.10,8,1,10,0.00
2013-3-9,77.8,65.5,54.1,61.0,54.7,49.4,89,69,52,30.19,30.10,9,2,13,0.00
2013-3-10,75.8,70.8,66.8,62.6,57.8,53.8,77,64,55,30.16,30.06,8,2,11,0.00
2013-3-11,75.9,72.4,69.9,63.9,61.7,58.7,77,69,59,30.10,29.95,9,4,16,0.00
2013-3-12,78.5,74.4,70.9,70.9,66.9,63.1,84,78,68,30.00,29.91,13,4,16,0.00
2013-3-13,79.0,67.3,57.8,66.0,57.7,48.5,90,73,49,30.12,29.97,11,2,16,0.00
2013-3-14,74.5,62.0,54.4,53.3,49.0,41.9,87,65,33,30.20,30.08,11,3,18,0.00
2013-3-15,75.1,63.6,53.0,58.3,50.8,44.2,80,64,45,30.25,30.15,9,2,16,0.00
2013-3-16,73.6,65.2,52.9,57.6,54.5,50.3,95,70,52,30.19,30.09,9,2,12,0.00
2013-3-17,75.5,68.8,59.7,62.7,58.9,54.0,86,71,60,30.15,30.02,11,2,13,0.00
2013-3-18,79.0,73.2,68.4,70.4,66.5,61.9,94,80,72,30.07,29.96,13,3,17,0.05
2013-3-19,81.2,73.0,67.2,70.8,68.6,65.4,96,87,63,30.01,29.82,12,1,15,0.02
2013-3-20,78.9,71.4,63.3,70.9,66.2,60.2,98,84,62,29.98,29.80,8,2,12,0.01
2013-3-21,76.4,67.2,57.0,61.5,57.0,50.8,91,71,43,29.94,29.83,10,2,12,0.00
2013-3-22,75.3,67.6,54.0,70.6,60.2,50.9,93,78,62,30.01,29.90,9,2,12,0.00
2013-3-23,82.1,76.9,70.7,75.7,72.9,68.9,97,88,75,29.98,29.81,12,3,17,0.01
2013-3-24,89.9,80.8,74.9,74.5,72.6,70.6,95,78,54,29.89,29.68,12,3,17,0.01
2013-3-25,82.4,75.1,65.8,73.3,61.8,42.4,94,66,36,29.99,29.74,12,2,13,0.01
2013-3-26,71.2,62.3,52.3,44.9,39.8,33.1,61,44,25,30.21,29.98,13,4,19,0.00
2013-3-27,71.3,58.1,46.0,50.7,43.5,34.9,72,59,41,30.24,30.16,11,2,14,0.00
2013-3-28,73.6,62.0,51.3,53.2,46.2,35.4,77,58,34,30.26,30.16,8,2,12,0.00
2013-3-29,77.8,66.1,55.5,57.5,51.1,41.5,73,59,45,30.28,30.20,12,2,13,0.00
2013-3-30,75.2,69.4,63.7,56.4,53.9,51.2,68,58,45,30.26,30.16,7,2,13,0.00
2013-3-31,78.2,73.0,68.8,67.9,63.0,55.0,82,71,61,30.19,30.05,9,4,15,0.00